Regional Weather Roundup
Issued by NWS

Home | Current Version | Previous Version | Text Only | Print | Product List | Glossary Off
Versions: 1 2 3 4 5 6 7 8 9 10 11 12 13 14 15 16 17 18 19 20 21 22 23 24 25 26 27

000
ASUS45 KSLC 161010
RWRUT

UTAH REGIONAL WEATHER ROUNDUP
NATIONAL WEATHER SERVICE SALT LAKE CITY UT
300 AM MST SAT DEC 16 2017

UTZ001>011-023>025-161100-

NORTHERN UTAH

CITY           SKY/WX    TMP DP  RH WIND       PRES   REMARKS
BRIGHAM CITY   CLOUDY    32  27  81 CALM      29.92F
HILL AFB       CLOUDY    31  23  70 N5        29.88F WCI  27
LOGAN          CLOUDY    31  26  82 CALM      29.94R HAZE
OGDEN          CLOUDY    32  24  72 CALM      29.89F
SALT LAKE CITY CLOUDY    33  28  81 SW6       29.89F HAZE    WCI  28
TOOELE VALLEY  CLOUDY    30  28  93 E5        29.92R WCI  25
WENDOVER       CLOUDY    30  22  72 CALM      29.93R
HEBER CITY     CLOUDY    25  19  80 E3        29.86F
WEST JORDAN    CLOUDY    31  26  84 SW6       29.89F WCI  25

$$

UTZ011>015-024>027-161100-

CENTRAL/NORTHEAST UTAH

CITY           SKY/WX    TMP DP  RH WIND       PRES   REMARKS
PROVO AIRPORT  CLOUDY    25  22  88 E7        29.91R WCI  17
MOAB/CANYONLAN MOCLDY    20   7  57 CALM      29.95F
DELTA          CLOUDY    23  16  74 CALM      29.86F
PRICE          CLOUDY    28  14  55 N6        29.94F WCI  22
RICHFIELD      CLEAR     21  12  68 CALM      29.89
ROOSEVELT      CLOUDY    23  16  74 CALM      29.96S
VERNAL         CLOUDY    24  15  68 CALM      29.94S

$$

UTZ013>016-019>022-027-161100-

SOUTHERN UTAH

CITY           SKY/WX    TMP DP  RH WIND       PRES   REMARKS
BRYCE CANYON   CLOUDY    18  -2  41 SW5       29.95F WCI  11
CEDAR CITY     CLOUDY    29   1  30 E3        29.88S
MILFORD        CLOUDY    37   3  24 SW14      29.84F WCI  28
ST GEORGE      CLOUDY    35  12  38 CALM      29.92F
HANKSVILLE     CLOUDY    23   9  54 CALM      30.00F
KANAB          CLEAR     27  -6  24 E2        29.97F
BLANDING         N/A     25   6  43 N6        30.06F WCI  18

$$

REGIONAL REPORTS     COLORADO/ARIZONA

CITY           SKY/WX    TMP DP  RH WIND       PRES   REMARKS
CRAIG, CO      CLOUDY     5   0  79 CALM      29.93F
GRAND JUNCTION CLOUDY    24   9  52 E12       29.97F WCI  13
RIFLE, CO      CLOUDY    15   5  64 S3        30.00F
MONTROSE, CO   CLOUDY    19   6  57 S6        30.01F WCI  11
CORTEZ, CO     CLOUDY    14   0  53 E7        30.02F WCI   4
COLORADO CITY    N/A     30   1  29 S6        29.94F WCI  24
PAGE, AZ       CLOUDY    32   9  38 SE5       29.94F WCI  27
GRAND CANYON   MOCLDY    16 -12  28 E3        30.00F
KINGMAN, AZ    CLOUDY    41   2  19 S8        29.91F
FLAGSTAFF, AZ  MOCLDY    22  -7  27 CALM      30.01F

$$

REGIONAL REPORTS    NEVADA/IDAHO/WYOMING

CITY           SKY/WX    TMP DP  RH WIND       PRES   REMARKS
LAS VEGAS, NV  CLOUDY    47  20  34 SW3       29.84F
ELY, NY        CLOUDY    29   4  34 SW7       29.88F WCI  22
ELKO, NV       CLOUDY    31  25  78 CALM      29.92S
POCATELLO, ID  LGT SNOW  28  25  88 SW13      29.97F VSB 3/4 WCI  17
BURLEY, ID     LGT SNOW  27  23  85 W5        29.98S FOG     WCI  22
FORT BRIDGER,  CLOUDY    38   1  21 W7        29.88F WCI  32
EVANSTON, WY   CLOUDY    33   9  36 W9        29.87F WCI  25
ROCK SPRINGS,  CLOUDY    31   8  38 SE8       29.86F WCI  23

$$




USA.gov is the U.S. government's official web portal to all federal, state and local government web resources and services.